Regional Weather Roundup
Issued by NWS State College, PA

Home | Current Version | Previous Version | Text Only | Print | Product List | Glossary On
Versions: 1 2 3 4 5 6 7 8 9 10 11 12 13 14 15 16 17 18 19 20 21 22 23 24 25 26 27 28 29 30 31 32 33 34 35 36 37 38 39 40 41 42 43 44 45 46 47 48 49 50
000
ASUS41 KCTP 072303
RWRCTP

REGIONAL WEATHER ROUNDUP
NATIONAL WEATHER SERVICE STATE COLLEGE PA
700 PM EDT TUE JUL 07 2015

Note: "fair" indicates few or no clouds below 12,000 feet with no
significant weather and/or obstructions to visibility.

* = STATION THAT DOES NOT REPORT PRECIPITATION /E.G. RAIN...SNOW...ETC/
    THUNDER OR FOG.

PAZ002>004-007>009-013>016-020>023-029>032-080000-
WESTERN PENNSYLVANIA

CITY           SKY/WX    TMP DP  RH WIND       PRES   REMARKS
ERIE           CLOUDY    73  68  84 W8        29.88F
MEADVILLE      RAIN      70  67  90 W10       29.93F FOG
FRANKLIN*      CLOUDY    75  66  73 SW9       29.94R
NEW CASTLE     MOCLDY    82  72  72 SW6       29.93R
BEAVER COUNTY  PTSUNNY   79  68  69 SW7       29.93F
BUTLER*        PTSUNNY   81  70  69 SW8G18    29.95S
PITTSBURGH INT CLOUDY    82  70  66 SW10      29.94S
PITTSBURGH     PTSUNNY   81  65  58 SW17G24   29.95S
INDIANA*       SUNNY     79  70  73 VRB7      30.00S
LATROBE        PTSUNNY   81  72  74 SW7       29.97F
WASHINGTON CO* NOT AVBL
$$

PAZ004>006-010>012-017>019-024>028-033>037-041-042-045-046-049>053-080000-
CENTRAL PENNSYLVANIA

CITY           SKY/WX    TMP DP  RH WIND       PRES   REMARKS
BRADFORD       CLOUDY    68  65  90 SE3       29.97F
DUBOIS         CLOUDY    75  68  78 SW9       29.96F
CLEARFIELD     CLOUDY    80  66  62 SW7       29.96F
JOHNSTOWN      MOSUNNY   77  65  66 SW10      30.02S
ALTOONA        PTSUNNY   79  66  64 S6        29.99S
STATE COLLEGE  MOSUNNY   81  68  65 SW8       29.96S
WILLIAMSPORT   SUNNY     84  68  58 S8        29.91S
SELINSGROVE    SUNNY     83  70  64 S8        29.94S
FT INDIANTOWN  SUNNY     84  69  61 SW9       29.95F
CAPITAL CITY   SUNNY     84  68  58 S9        29.95S
HARRISBURG     MOSUNNY   85  69  58 S6        29.95S
YORK           SUNNY     84  69  60 S6        29.97S
$$

PAZ038>040-043-044-047-048-054-055-060>062-067>071-080000-
EASTERN PENNSYLVANIA

CITY           SKY/WX    TMP DP  RH WIND       PRES   REMARKS
SCRANTON       SUNNY     83  65  54 SW8       29.95S
MOUNT POCONO   MOSUNNY   76  67  73 SW8       30.02S
ALLENTOWN      MOSUNNY   84  71  65 SW10      29.95S
QUAKERTOWN*    PTCLDY    82  73  74 SW6       29.98S
READING        SUNNY     84  67  56 SW7       29.95S
LANCASTER      SUNNY     83  66  56 SW12      29.97S
COATESVILLE    CLEAR     82  72  69 SW6       30.00S
POTTSTOWN      SUNNY     83  70  64 SW7       29.98S
BLUE BELL      MOSUNNY   86  72  62 SW10      29.96S
DOYLESTOWN     SUNNY     83  68  60 SW8       29.96S
WILLOW GROVE   NOT AVBL
NORTH PHILA    MOSUNNY   87  65  47 SW8       29.97S
PHILADELPHIA   MOSUNNY   88  68  51 SW14      29.96S
$$


USA.gov is the U.S. government's official web portal to all federal, state and local government web resources and services.